FW7738 Weather Reports


time (UTC)temp
C
wind
direction
speed
KPH
gust
KPH
rain 1hr
cm
rain 24hr
cm
rain mn
cm
humidity
%
barometer
mb
20260507054029 13 351 0.0 1.6 0.00 0.00 0.00 73 1010.8
20260507053025 13 276 1.6 4.8 0.00 0.00 0.00 73 1010.8
20260507052020 13 220 0.0 1.6 0.00 0.00 0.00 73 1010.6
20260507051035 13 205 0.0 3.2 0.00 0.00 0.00 73 1010.6
20260507050031 13 313 0.0 1.6 0.00 0.00 0.00 73 1010.3
20260507045026 13 333 0.0 3.2 0.00 0.00 0.00 72 1010.2
20260507044021 13 333 0.0 3.2 0.00 0.00 0.00 72 1010.0
20260507043017 13 323 1.6 4.8 0.00 0.00 0.00 72 1010.0
20260507042053 13 332 1.6 4.8 0.00 0.00 0.00 72 1009.9
20260507041028 13 310 6.4 9.7 0.00 0.00 0.00 71 1010.0
20260507040024 13 314 4.8 11.3 0.00 0.00 0.00 70 1010.0
20260507035019 13 304 6.4 9.7 0.00 0.00 0.00 72 1010.0
20260507034034 13 303 6.4 12.9 0.00 0.00 0.00 73 1010.0
20260507033029 13 308 8.0 12.9 0.00 0.00 0.00 73 1010.2
20260507032025 13 306 4.8 11.3 0.00 0.00 0.00 74 1010.3
20260507031020 13 319 6.4 11.3 0.00 0.00 0.00 75 1010.4
20260507030016 13 312 8.0 14.5 0.00 0.00 0.00 73 1010.4
20260507025031 13 305 6.4 12.9 0.00 0.00 0.00 72 1010.4
20260507024026 13 302 6.4 11.3 0.00 0.00 0.00 73 1010.5
20260507023022 13 303 6.4 12.9 0.00 0.00 0.00 73 1010.5
20260507022017 13 293 6.4 11.3 0.00 0.00 0.00 73 1010.6
20260507021033 13 296 6.4 11.3 0.00 0.00 0.00 74 1010.4
20260507020028 13 299 6.4 14.5 0.00 0.00 0.00 73 1010.5
20260507015023 13 283 6.4 12.9 0.00 0.00 0.00 73 1010.5
20260507014019 14 291 4.8 9.7 0.00 0.00 0.00 73 1010.5
20260507013054 14 293 4.8 11.3 0.00 0.00 0.00 73 1010.5
20260507012029 14 282 6.4 9.7 0.00 0.00 0.00 73 1010.6
20260507011045 14 298 6.4 9.7 0.00 0.00 0.00 72 1010.6
20260507010020 15 305 6.4 9.7 0.00 0.00 0.00 70 1010.6
20260507005015 15 320 3.2 4.8 0.00 0.00 0.00 67 1010.7
20260507004111 15 325 3.2 6.4 0.00 0.00 0.00 66 1010.8
20260507003026 15 345 1.6 3.2 0.00 0.00 0.00 67 1010.8
20260507002022 15 337 3.2 6.4 0.00 0.00 0.00 67 1010.9
20260507001037 15 333 1.6 4.8 0.00 0.00 0.00 67 1011.1
20260507000032 15 304 3.2 4.8 0.00 0.00 0.00 68 1011.1
20260506235027 15 317 3.2 4.8 0.00 0.00 0.00 70 1011.2
20260506234023 15 320 3.2 4.8 0.00 0.00 0.00 72 1011.2
20260506233058 15 326 3.2 6.4 0.00 0.00 0.00 72 1011.1
20260506232114 15 348 1.6 3.2 0.00 0.00 0.00 72 1011.3
20260506231029 15 338 1.6 3.2 0.00 0.00 0.00 72 1011.4
20260506230024 16 328 1.6 3.2 0.00 0.00 0.00 72 1011.4
20260506225020 15 346 1.6 3.2 0.00 0.00 0.00 72 1011.3
20260506224015 15 343 1.6 4.8 0.00 0.00 0.00 73 1011.5
20260506223111 16 339 1.6 3.2 0.00 0.00 0.00 73 1011.6
20260506222026 16 339 1.6 3.2 0.00 0.00 0.00 73 1011.4
20260506221042 16 358 1.6 1.6 0.00 0.00 0.00 72 1011.4
20260506220017 16 330 1.6 3.2 0.00 0.00 0.00 72 1011.4
20260506215032 16 353 1.6 3.2 0.00 0.00 0.00 71 1011.5
20260506214028 16 323 1.6 3.2 0.00 0.00 0.00 71 1011.5
20260506213044 16 351 0.0 3.2 0.00 0.00 0.00 70 1011.5
20260506212018 16 356 1.6 3.2 0.00 0.00 0.00 69 1011.3
20260506211054 16 12 1.6 1.6 0.00 0.00 0.00 69 1011.2
20260506210029 16 61 0.0 1.6 0.00 0.00 0.00 69 1011.2
20260506205025 16 51 0.0 3.2 0.00 0.00 0.00 69 1011.0
20260506204020 16 56 0.0 3.2 0.00 0.00 0.00 69 1010.9
20260506203015 17 68 0.0 3.2 0.00 0.00 0.00 69 1010.8
20260506202051 16 53 1.6 3.2 0.00 0.00 0.00 69 1010.7
20260506201026 16 67 1.6 4.8 0.00 0.00 0.00 69 1010.7
20260506200041 16 72 1.6 4.8 0.00 0.00 0.00 69 1010.6
20260506195017 16 71 0.0 1.6 0.00 0.00 0.00 69 1010.4
20260506194032 16 71 0.0 3.2 0.00 0.00 0.00 70 1010.3
20260506193028 16 64 1.6 4.8 0.00 0.00 0.00 70 1010.2
20260506192023 16 70 0.0 4.8 0.00 0.00 0.00 70 1010.1
20260506191039 17 83 3.2 9.7 0.00 0.00 0.00 70 1010.0
20260506190035 17 74 3.2 6.4 0.00 0.00 0.00 69 1010.0
20260506185030 17 97 8.0 12.9 0.00 0.00 0.00 69 1010.0
20260506184025 17 91 4.8 11.3 0.00 0.00 0.00 67 1009.8
20260506183020 17 92 3.2 9.7 0.00 0.00 0.00 66 1009.8
20260506182036 17 118 8.0 12.9 0.00 0.00 0.00 66 1009.7
20260506181031 17 102 6.4 14.5 0.00 0.00 0.00 66 1009.6
20260506180027 17 115 8.0 16.1 0.00 0.00 0.00 66 1009.5
20260506175022 17 96 8.0 14.5 0.00 0.00 0.00 65 1009.5
20260506174017 17 116 8.0 14.5 0.00 0.00 0.00 64 1009.4
20260506173032 17 103 11.3 17.7 0.00 0.00 0.00 66 1009.5
20260506172027 17 91 9.7 22.5 0.00 0.00 0.00 66 1009.5
20260506171023 17 95 9.7 20.9 0.00 0.00 0.00 65 1009.7
20260506170018 17 96 11.3 22.5 0.00 0.00 0.00 65 1009.8
20260506165034 18 99 12.9 25.7 0.00 0.00 0.00 64 1009.8
20260506164029 18 99 11.3 20.9 0.00 0.00 0.00 62 1009.8
20260506163044 18 94 12.9 24.1 0.00 0.00 0.00 64 1009.7
20260506162020 18 104 12.9 25.7 0.00 0.00 0.00 64 1009.7
20260506161015 18 123 14.5 25.7 0.00 0.00 0.00 62 1009.6
20260506160031 18 95 11.3 24.1 0.00 0.00 0.00 61 1009.7
20260506155026 18 93 12.9 24.1 0.00 0.00 0.00 63 1009.7
20260506154021 18 95 12.9 24.1 0.00 0.00 0.00 64 1009.7
20260506153017 18 99 12.9 24.1 0.00 0.00 0.00 62 1009.5
20260506152032 17 101 14.5 25.7 0.00 0.00 0.00 65 1009.3
20260506151027 17 109 16.1 27.4 0.00 0.00 0.00 64 1009.5
20260506150023 17 96 12.9 24.1 0.00 0.00 0.00 64 1009.7
20260506145018 18 91 9.7 22.5 0.00 0.00 0.00 63 1010.0
20260506144033 18 115 11.3 22.5 0.00 0.00 0.00 64 1009.9
20260506143028 18 110 9.7 17.7 0.00 0.00 0.00 64 1009.9
20260506142025 17 128 14.5 22.5 0.00 0.00 0.00 64 1010.0
20260506141020 18 105 14.5 25.7 0.00 0.00 0.00 65 1010.2
20260506140035 18 118 16.1 27.4 0.00 0.00 0.00 65 1010.2
20260506135030 18 125 16.1 27.4 0.00 0.00 0.00 64 1010.1
20260506134025 18 106 11.3 24.1 0.00 0.00 0.00 64 1010.0
20260506133041 18 131 20.9 30.6 0.00 0.00 0.00 66 1010.0
20260506132016 18 119 19.3 27.4 0.00 0.00 0.00 63 1010.0
20260506131032 18 100 16.1 29.0 0.00 0.00 0.00 60 1010.0
20260506130047 18 124 17.7 27.4 0.00 0.00 0.00 61 1010.3
20260506125022 20 124 14.5 24.1 0.00 0.00 0.00 56 1010.2
20260506124017 19 130 16.1 27.4 0.00 0.00 0.00 57 1010.2
20260506123033 18 111 19.3 29.0 0.00 0.00 0.00 59 1010.2
20260506122028 19 120 12.9 24.1 0.00 0.00 0.00 60 1010.2
20260506121024 19 114 17.7 25.7 0.00 0.00 0.00 61 1010.2
20260506120018 19 119 19.3 35.4 0.00 0.00 0.00 59 1010.3
20260506115034 19 123 19.3 30.6 0.00 0.00 0.00 60 1010.3
20260506114029 19 132 17.7 35.4 0.00 0.00 0.00 59 1010.5
20260506113024 20 125 17.7 27.4 0.00 0.00 0.00 57 1010.4
20260506112020 20 126 16.1 27.4 0.00 0.00 0.00 56 1010.4
20260506111114 20 121 12.9 24.1 0.00 0.00 0.00 55 1010.5
20260506110049 20 138 14.5 27.4 0.00 0.00 0.00 52 1010.4
20260506105025 20 116 12.9 24.1 0.00 0.00 0.00 53 1010.6
20260506104040 20 130 9.7 20.9 0.00 0.00 0.00 52 1010.6
20260506103016 20 132 12.9 25.7 0.00 0.00 0.00 52 1010.6
20260506102031 20 118 9.7 20.9 0.00 0.00 0.00 52 1010.6
20260506101026 20 137 9.7 20.9 0.00 0.00 0.00 51 1010.7
20260506100022 20 144 6.4 12.9 0.00 0.00 0.00 52 1010.7
20260506095017 20 157 6.4 14.5 0.00 0.00 0.00 52 1010.7
20260506094052 20 115 8.0 14.5 0.00 0.00 0.00 51 1010.7
20260506093027 20 109 4.8 14.5 0.00 0.00 0.00 49 1010.7
20260506092022 19 137 4.8 12.9 0.00 0.00 0.00 50 1010.7
20260506091018 20 171 4.8 12.9 0.00 0.00 0.00 50 1010.7
20260506090033 20 193 3.2 9.7 0.00 0.00 0.00 50 1010.6
20260506085028 20 185 1.6 4.8 0.00 0.00 0.00 52 1010.7
20260506084024 19 162 4.8 11.3 0.00 0.00 0.00 53 1010.6
20260506083039 20 131 3.2 6.4 0.00 0.00 0.00 53 1010.7
20260506082034 20 292 0.0 3.2 0.00 0.00 0.00 52 1010.7
20260506081029 19 271 1.6 3.2 0.00 0.00 0.00 55 1010.7
20260506073031 17 264 3.2 6.4 0.00 0.00 0.00 63 1010.8
20260506072026 17 288 3.2 6.4 0.00 0.00 0.00 64 1010.7
20260506071042 16 314 4.8 11.3 0.00 0.00 0.00 66 1010.6
20260506062019 15 306 1.6 3.2 0.00 0.00 0.00 71 1010.6
20260506061035 15 0.0 0.0 0.00 0.00 0.00 71 1010.4